STARLINK-34599, 64919

Orbit data source: Space-Track

STARLINK-34599, 64919 is a payload satellite owned by SpaceX/Seattle (US) in LEO that was launched on Sat, 26 Jul 2025 UTC via an FALCON 9 launch vehicle from the Air Force Eastern Test Range (AFETR). Payload-class satellites include a variety of spacecraft equipped with specific instruments for various scientific and technological missions. These include communications satellites like Starlink; space stations such as the ISS; scientific satellites like the Hubble; Earth observation satellites from companies like Planet Labs, Umbra, and HawkEye 360; GPS; miniature CubeSats for education and research; and military/defense satellites.

Loading next visibility...
Identifier
64919, 2025-157R
Orbit
LEO
Country
Flag of USUS
Related business
Manufacturer
SpaceX/Seattle
Mission
Operational Commercial Communications
Bus & Motor
STARLINK V2MO, Unknown motor
Mass
575 kg wet, ~530 kg dry
Launch date (UTC)
2025-07-26 (4 months ago)
Launch vehicle
FALCON 9
Launch site
Air Force Eastern Test Range (AFETR)
Object type
Payload
Rocket body
Debris
Shape & HBR
Box + 2 Pan, 17.7 m
Radar Cross Section
36.964 m², Large (>1 m²)

Expand to show TLE details & history
Last TLE update: 16 hours ago

TLE from 16 hours ago
0 STARLINK-34599
1 64919U 25157R   25340.51955941  .00102171  00000-0  25290-2 0  9994
2 64919  53.1584  62.3605 0002138 102.0418 258.0827 15.39633634 21805
Epoch: 2025-12-06T12:28Z
TLE epoch observation values (Epoch: 2025-12-06T12:28:09.933Z)
Latitude
0.00004°
Longitude
159.77301°
Altitude
448.397 km
Speed
7.644 km/s
True Right ascension
04h 09m 26s
True Declination
0° 00' 00"
Sunlit
Object was in full shadow at epoch
Visualization orbit readout
Latitude
Unknown
Longitude
Unknown
Altitude
Unknown
Speed
Unknown
Apparent Right ascension
Unknown
Apparent Declination
Unknown
Sunlit
N/A
Visualization observer readout
Local Sidereal Time
02:29:57
Azimuth
Unknown
Elevation
Unknown
Doppler factor
Unknown
Orbital elements
Apogee altitude
448.909 km
Perigee altitude
445.99 km
Semi-major axis
6,825.587 km
Eccentricity
0.00021
Inclination
53.1584°
RAAN
62.3605°
Arg. of periapsis
102.0418°
True anomaly
258.05873°
Mean anomaly
258.0827°
Eccentric anomaly
258.07071°
Mean motion
3.84887 °/min
Orbital period
93.53 mins
BSTAR
0.002529
Loading maneuver chart data...
Computing Atmospheric mass density...
Loading historical data...
Loading historical data...
Loading historical data...
Loading historical data...
Loading historical data...
Loading historical data...
Loading historical data...

Documentation

Showing up to 5 results
|